| time (UTC) | temp F | wind direction | speed MPH | gust MPH | rain 1hr in | rain 24hr in | rain mn in | humidity % | barometer mb |
| 20260507234504 | 54 | 250 | 0.0 | 0.0 | 0.00 | 0.40 | 0.31 | 79 | 1006.1 |
| 20260507233008 | 55 | 123 | 0.0 | 0.0 | 0.00 | 0.42 | 0.31 | 79 | 1006.0 |
| 20260507231516 | 56 | 123 | 0.0 | 2.0 | 0.00 | 0.44 | 0.31 | 75 | 1005.8 |
| 20260507230016 | 57 | 136 | 0.0 | 4.0 | 0.00 | 0.45 | 0.31 | 75 | 1005.8 |
| 20260507224523 | 59 | 257 | 1.0 | 5.0 | 0.00 | 0.45 | 0.31 | 70 | 1005.7 |
| 20260507223007 | 60 | 229 | 2.0 | 5.0 | 0.00 | 0.45 | 0.31 | 67 | 1005.7 |
| 20260507221511 | 61 | 252 | 2.0 | 6.0 | 0.00 | 0.45 | 0.31 | 66 | 1005.8 |
| 20260507220013 | 62 | 231 | 3.0 | 7.0 | 0.00 | 0.45 | 0.31 | 63 | 1005.8 |
| 20260507214519 | 61 | 91 | 3.0 | 6.0 | 0.00 | 0.45 | 0.31 | 67 | 1005.7 |
| 20260507213022 | 61 | 212 | 3.0 | 8.0 | 0.00 | 0.45 | 0.31 | 66 | 1005.8 |
| 20260507211512 | 60 | 282 | 2.0 | 5.0 | 0.00 | 0.45 | 0.31 | 68 | 1005.6 |
| 20260507210012 | 58 | 7 | 2.0 | 5.0 | 0.00 | 0.45 | 0.31 | 74 | 1005.6 |
| 20260507204516 | 58 | 198 | 3.0 | 6.0 | 0.00 | 0.45 | 0.31 | 74 | 1005.4 |
| 20260507203020 | 58 | 47 | 2.0 | 9.0 | 0.00 | 0.45 | 0.31 | 73 | 1005.3 |
| 20260507201528 | 57 | 163 | 5.0 | 12.0 | 0.00 | 0.45 | 0.31 | 74 | 1005.4 |
| 20260507200009 | 56 | 175 | 5.0 | 10.0 | 0.00 | 0.45 | 0.31 | 72 | 1005.4 |
| 20260507194519 | 56 | 48 | 4.0 | 8.0 | 0.00 | 0.45 | 0.31 | 71 | 1005.7 |
| 20260507193025 | 56 | 160 | 3.0 | 9.0 | 0.00 | 0.45 | 0.31 | 72 | 1005.9 |
| 20260507191524 | 58 | 110 | 6.0 | 10.0 | 0.00 | 0.45 | 0.31 | 66 | 1006.3 |
| 20260507190008 | 59 | 104 | 2.0 | 6.0 | 0.00 | 0.45 | 0.31 | 68 | 1006.2 |
| 20260507184512 | 60 | 70 | 2.0 | 6.0 | 0.00 | 0.45 | 0.31 | 62 | 1006.4 |
| 20260507183006 | 59 | 112 | 4.0 | 6.0 | 0.00 | 0.45 | 0.31 | 64 | 1006.5 |
| 20260507181510 | 60 | 333 | 2.0 | 6.0 | 0.00 | 0.45 | 0.31 | 66 | 1006.5 |
| 20260507180004 | 60 | 207 | 1.0 | 5.0 | 0.00 | 0.45 | 0.31 | 64 | 1006.9 |
| 20260507174513 | 59 | 162 | 1.0 | 5.0 | 0.00 | 0.45 | 0.31 | 64 | 1007.0 |
| 20260507173014 | 59 | 224 | 3.0 | 6.0 | 0.00 | 0.45 | 0.31 | 64 | 1007.0 |
| 20260507171503 | 58 | 297 | 3.0 | 6.0 | 0.00 | 0.45 | 0.31 | 67 | 1007.2 |
| 20260507170004 | 58 | 297 | 3.0 | 7.0 | 0.00 | 0.45 | 0.31 | 68 | 1007.5 |
| 20260507164507 | 58 | 329 | 2.0 | 8.0 | 0.00 | 0.45 | 0.31 | 74 | 1007.4 |
| 20260507163011 | 57 | 260 | 3.0 | 7.0 | 0.00 | 0.45 | 0.31 | 70 | 1007.5 |
| 20260507161514 | 57 | 276 | 2.0 | 6.0 | 0.00 | 0.45 | 0.31 | 73 | 1007.4 |
| 20260507160028 | 56 | 321 | 3.0 | 7.0 | 0.00 | 0.45 | 0.31 | 75 | 1007.6 |
| 20260507154506 | 56 | 77 | 3.0 | 7.0 | 0.00 | 0.45 | 0.31 | 76 | 1007.9 |
| 20260507153007 | 55 | 112 | 2.0 | 6.0 | 0.00 | 0.45 | 0.31 | 81 | 1007.9 |
| 20260507151510 | 53 | 307 | 1.0 | 5.0 | 0.01 | 0.45 | 0.31 | 90 | 1007.8 |
| 20260507150018 | 52 | 273 | 1.0 | 6.0 | 0.01 | 0.45 | 0.31 | 87 | 1008.0 |
| 20260507144522 | 51 | 297 | 2.0 | 6.0 | 0.01 | 0.45 | 0.31 | 90 | 1008.1 |
| 20260507143013 | 51 | 233 | 2.0 | 5.0 | 0.01 | 0.45 | 0.31 | 91 | 1008.1 |
| 20260507141516 | 50 | 302 | 2.0 | 4.0 | 0.00 | 0.44 | 0.30 | 91 | 1007.8 |
| 20260507140014 | 49 | 56 | 2.0 | 8.0 | 0.00 | 0.44 | 0.30 | 91 | 1007.9 |
| 20260507134520 | 49 | 287 | 3.0 | 5.0 | 0.01 | 0.44 | 0.30 | 92 | 1007.7 |
| 20260507133024 | 48 | 317 | 1.0 | 3.0 | 0.02 | 0.44 | 0.30 | 94 | 1007.6 |
| 20260507131510 | 48 | 290 | 2.0 | 4.0 | 0.02 | 0.44 | 0.30 | 94 | 1008.1 |
| 20260507130026 | 48 | 278 | 1.0 | 4.0 | 0.02 | 0.44 | 0.30 | 94 | 1008.1 |
| 20260507124517 | 47 | 296 | 1.0 | 3.0 | 0.02 | 0.43 | 0.29 | 94 | 1007.9 |
| 20260507123022 | 48 | 290 | 2.0 | 4.0 | 0.01 | 0.42 | 0.28 | 94 | 1008.0 |
| 20260507121522 | 48 | 321 | 2.0 | 9.0 | 0.02 | 0.42 | 0.28 | 94 | 1007.6 |
| 20260507120008 | 48 | 349 | 3.0 | 8.0 | 0.02 | 0.42 | 0.28 | 93 | 1008.1 |
| 20260507114522 | 48 | 300 | 3.0 | 5.0 | 0.01 | 0.41 | 0.27 | 94 | 1008.2 |
| 20260507113017 | 49 | 340 | 1.0 | 4.0 | 0.02 | 0.41 | 0.27 | 94 | 1007.3 |
| 20260507111522 | 49 | 112 | 3.0 | 10.0 | 0.02 | 0.40 | 0.26 | 94 | 1007.4 |
| 20260507110027 | 49 | 319 | 3.0 | 6.0 | 0.03 | 0.40 | 0.26 | 95 | 1007.6 |
| 20260507104508 | 49 | 338 | 2.0 | 8.0 | 0.11 | 0.40 | 0.26 | 95 | 1007.2 |
| 20260507103014 | 49 | 266 | 3.0 | 9.0 | 0.15 | 0.39 | 0.25 | 95 | 1007.2 |
| 20260507101522 | 50 | 300 | 2.0 | 7.0 | 0.17 | 0.38 | 0.24 | 95 | 1006.9 |
| 20260507100032 | 51 | 334 | 4.0 | 9.0 | 0.20 | 0.37 | 0.23 | 95 | 1006.3 |
| 20260507094506 | 52 | 8 | 3.0 | 5.0 | 0.15 | 0.29 | 0.15 | 96 | 1006.4 |
| 20260507093012 | 52 | 287 | 2.0 | 6.0 | 0.10 | 0.24 | 0.10 | 95 | 1006.3 |
| 20260507091519 | 54 | 242 | 3.0 | 6.0 | 0.07 | 0.21 | 0.07 | 95 | 1006.7 |
| 20260507090023 | 55 | 217 | 3.0 | 6.0 | 0.03 | 0.17 | 0.03 | 95 | 1007.1 |
| 20260507084505 | 55 | 285 | 1.0 | 4.0 | 0.00 | 0.14 | 0.00 | 96 | 1006.4 |
| 20260507083008 | 55 | 224 | 2.0 | 4.0 | 0.00 | 0.14 | 0.00 | 96 | 1005.7 |
| 20260507081513 | 55 | 245 | 2.0 | 6.0 | 0.00 | 0.14 | 0.00 | 96 | 1005.6 |
| 20260507080020 | 56 | 248 | 1.0 | 6.0 | 0.00 | 0.14 | 0.00 | 96 | 1005.7 |
| 20260507074524 | 55 | 255 | 1.0 | 5.0 | 0.00 | 0.14 | 0.00 | 96 | 1006.0 |
| 20260507073030 | 55 | 240 | 3.0 | 7.0 | 0.00 | 0.14 | 0.00 | 96 | 1006.0 |
| 20260507071516 | 55 | 223 | 3.0 | 9.0 | 0.00 | 0.14 | 0.00 | 95 | 1006.4 |
| 20260507070016 | 55 | 247 | 3.0 | 8.0 | 0.00 | 0.14 | 0.00 | 95 | 1006.0 |
| 20260507064531 | 55 | 226 | 2.0 | 9.0 | 0.00 | 0.14 | 0.00 | 95 | 1006.3 |
| 20260507063026 | 55 | 174 | 2.0 | 7.0 | 0.00 | 0.14 | 0.00 | 95 | 1006.4 |
| 20260507061529 | 56 | 221 | 2.0 | 11.0 | 0.00 | 0.14 | 0.00 | 95 | 1006.3 |
| 20260507060012 | 56 | 279 | 3.0 | 11.0 | 0.00 | 0.14 | 0.00 | 95 | 1006.2 |
| 20260507054516 | 56 | 188 | 2.0 | 13.0 | 0.00 | 0.14 | 0.00 | 95 | 1006.5 |
| 20260507053024 | 56 | 240 | 3.0 | 17.0 | 0.00 | 0.14 | 0.00 | 95 | 1006.9 |
| 20260507051524 | 56 | 259 | 7.0 | 12.0 | 0.00 | 0.14 | 0.00 | 95 | 1007.1 |
| 20260507050038 | 57 | 218 | 4.0 | 10.0 | 0.00 | 0.14 | 0.00 | 95 | 1007.0 |
| 20260507044516 | 57 | 243 | 4.0 | 13.0 | 0.00 | 0.14 | 0.00 | 95 | 1007.1 |
| 20260507043022 | 57 | 228 | 4.0 | 12.0 | 0.00 | 0.14 | 0.00 | 95 | 1007.2 |
| 20260507041526 | 57 | 208 | 4.0 | 12.0 | 0.00 | 0.14 | 0.00 | 95 | 1007.6 |
| 20260507040029 | 57 | 239 | 4.0 | 14.0 | 0.00 | 0.14 | 0.00 | 95 | 1007.4 |
| 20260507034529 | 57 | 242 | 6.0 | 15.0 | 0.00 | 0.14 | 0.14 | 95 | 1007.7 |
| 20260507033020 | 57 | 136 | 5.0 | 20.0 | 0.00 | 0.14 | 0.14 | 95 | 1007.3 |
| 20260507031521 | 57 | 272 | 5.0 | 14.0 | 0.00 | 0.14 | 0.14 | 95 | 1007.0 |
| 20260507030029 | 57 | 154 | 4.0 | 18.0 | 0.00 | 0.14 | 0.14 | 95 | 1007.3 |
| 20260507024515 | 57 | 120 | 5.0 | 14.0 | 0.00 | 0.14 | 0.14 | 95 | 1007.7 |
| 20260507023015 | 57 | 246 | 7.0 | 18.0 | 0.00 | 0.14 | 0.14 | 95 | 1007.9 |
| 20260507021516 | 57 | 227 | 4.0 | 14.0 | 0.00 | 0.14 | 0.14 | 94 | 1008.1 |
| 20260507020005 | 57 | 232 | 7.0 | 14.0 | 0.01 | 0.14 | 0.14 | 94 | 1008.3 |
| 20260507014512 | 57 | 131 | 5.0 | 21.0 | 0.03 | 0.14 | 0.14 | 94 | 1008.5 |
| 20260507013015 | 57 | 238 | 5.0 | 18.0 | 0.05 | 0.14 | 0.14 | 94 | 1008.4 |
| 20260507011517 | 57 | 252 | 5.0 | 13.0 | 0.06 | 0.14 | 0.14 | 94 | 1008.6 |
| 20260507010023 | 57 | 240 | 6.0 | 18.0 | 0.06 | 0.13 | 0.13 | 94 | 1008.7 |
| 20260507004504 | 57 | 179 | 6.0 | 21.0 | 0.06 | 0.11 | 0.11 | 94 | 1008.6 |
| 20260507003008 | 57 | 249 | 7.0 | 16.0 | 0.06 | 0.09 | 0.09 | 94 | 1008.5 |
| 20260507001516 | 57 | 251 | 5.0 | 22.0 | 0.07 | 0.08 | 0.08 | 93 | 1008.6 |
| 20260507000020 | 58 | 200 | 5.0 | 24.0 | 0.07 | 0.07 | 0.07 | 93 | 1008.7 |